EA5CBT-13 Weather Reports


time (UTC)temp
F
wind
direction
speed
knots
gust
knots
rain 1hr
in
rain 24hr
in
rain mn
in
humidity
%
barometer
mb
20260510211518 65 315 0.9 2.6 0.00 0.00 0.00 69 1010.2
20260510210611 65 277 0.9 2.6 0.00 0.00 0.00 70 1010.2
20260510205604 66 261 3.5 5.2 0.00 0.00 0.00 70 1010.0
20260510204617 66 299 1.7 3.5 0.00 0.00 0.00 70 1010.0
20260510203546 66 248 3.5 7.0 0.00 0.00 0.00 70 1010.0
20260510202539 66 228 4.3 10.4 0.00 0.00 0.00 70 1009.7
20260510201530 66 250 3.5 7.0 0.00 0.00 0.00 67 1009.8
20260510200544 66 270 1.7 1.7 0.00 0.00 0.00 65 1009.4
20260510195615 66 229 2.6 5.2 0.00 0.00 0.00 64 1009.4
20260510194608 67 234 1.7 3.5 0.00 0.00 0.00 62 1009.5
20260510193558 68 225 1.7 2.6 0.00 0.00 0.00 60 1009.3
20260510192550 68 236 2.6 5.2 0.00 0.00 0.00 60 1009.4
20260510191602 68 232 4.3 6.1 0.00 0.00 0.00 60 1009.2
20260510190534 68 235 4.3 7.8 0.00 0.00 0.00 60 1009.2
20260510185526 69 220 4.3 8.7 0.00 0.00 0.00 59 1009.0
20260510184518 69 201 4.3 8.7 0.00 0.00 0.00 57 1009.3
20260510183611 69 211 4.3 7.0 0.00 0.00 0.00 59 1009.2
20260510182603 70 219 6.1 9.6 0.00 0.00 0.00 56 1008.9
20260510181554 70 220 7.0 10.4 0.00 0.00 0.00 54 1008.9
20260510180547 71 158 5.2 9.6 0.00 0.00 0.00 54 1009.0
20260510175539 71 210 6.1 8.7 0.00 0.00 0.00 53 1009.0
20260510174530 72 210 7.0 10.4 0.00 0.00 0.00 52 1009.2
20260510173522 73 206 6.1 12.2 0.00 0.00 0.00 49 1009.2
20260510172615 73 225 6.1 12.2 0.00 0.00 0.00 46 1009.2
20260510171607 73 193 5.2 9.6 0.00 0.00 0.00 45 1009.0
20260510170559 74 210 7.0 13.0 0.00 0.00 0.00 45 1008.8
20260510165551 74 228 7.8 13.9 0.00 0.00 0.00 45 1008.9
20260510164603 75 187 6.1 11.3 0.00 0.00 0.00 44 1008.9
20260510163535 74 210 7.0 13.0 0.00 0.00 0.00 45 1009.0
20260510162547 74 229 7.0 11.3 0.00 0.00 0.00 46 1009.0
20260510161519 74 211 7.8 13.0 0.00 0.00 0.00 44 1009.1
20260510160611 75 225 9.6 13.0 0.00 0.00 0.00 42 1009.0
20260510155645 75 225 7.8 13.9 0.00 0.00 0.00 41 1009.1
20260510154555 76 219 7.8 13.9 0.00 0.00 0.00 42 1009.0
20260510153547 76 221 7.8 12.2 0.00 0.00 0.00 42 1009.1
20260510152539 75 213 7.8 14.8 0.00 0.00 0.00 43 1009.2
20260510151552 75 217 9.6 16.5 0.00 0.00 0.00 42 1009.3
20260510150523 76 171 7.0 13.0 0.00 0.00 0.00 42 1009.5
20260510145515 76 201 7.0 13.0 0.00 0.00 0.00 41 1009.3
20260510144608 76 231 7.0 13.0 0.00 0.00 0.00 41 1009.6
20260510143600 76 218 7.8 13.0 0.00 0.00 0.00 41 1009.5
20260510142552 76 225 8.7 13.9 0.00 0.00 0.00 41 1009.7
20260510141545 76 206 9.6 16.5 0.00 0.00 0.00 41 1009.8
20260510140536 76 225 8.7 10.4 0.00 0.00 0.00 41 1009.8
20260510135528 76 210 7.8 14.8 0.00 0.00 0.00 40 1010.0
20260510134520 77 230 7.0 10.4 0.00 0.00 0.00 42 1010.0
20260510133612 77 201 7.8 10.4 0.00 0.00 0.00 42 1010.0
20260510132625 76 187 7.8 13.0 0.00 0.00 0.00 42 1010.2
20260510131617 77 226 7.8 13.0 0.00 0.00 0.00 44 1010.4
20260510130549 77 225 7.0 12.2 0.00 0.00 0.00 44 1010.5
20260510125541 76 227 9.6 17.4 0.00 0.00 0.00 42 1010.6
20260510124532 75 236 7.8 18.2 0.00 0.00 0.00 46 1010.7
20260510123526 75 214 8.7 15.6 0.00 0.00 0.00 47 1010.7
20260510122517 74 197 7.0 13.0 0.00 0.00 0.00 50 1011.0
20260510121610 75 206 7.0 12.2 0.00 0.00 0.00 51 1011.2
20260510120602 76 270 7.8 9.6 0.00 0.00 0.00 51 1011.2
20260510115614 76 220 7.0 10.4 0.00 0.00 0.00 51 1011.3
20260510114547 76 216 6.1 8.7 0.00 0.00 0.00 50 1011.2
20260510113538 76 205 6.1 12.2 0.00 0.00 0.00 51 1011.4
20260510112530 75 178 2.6 6.1 0.00 0.00 0.00 62 1011.5
20260510111543 73 163 3.5 6.1 0.00 0.01 0.00 66 1011.8
20260510110656 73 143 4.3 7.8 0.00 0.01 0.00 65 1012.0
20260510105607 73 107 3.5 5.2 0.00 0.01 0.00 64 1012.2
20260510104600 72 155 3.5 5.2 0.00 0.02 0.00 68 1012.3
20260510103551 73 174 4.3 6.1 0.00 0.02 0.00 63 1012.3
20260510102543 74 138 3.5 7.8 0.00 0.02 0.00 62 1012.2
20260510101536 73 102 2.6 4.3 0.00 0.02 0.00 62 1012.3
20260510100527 73 135 2.6 3.5 0.00 0.02 0.00 62 1012.2
20260510095520 73 128 2.6 4.3 0.00 0.02 0.00 61 1012.3
20260510094655 74 144 3.5 5.2 0.00 0.02 0.00 61 1012.1
20260510093605 74 114 3.5 4.3 0.00 0.04 0.00 61 1012.2
20260510092558 74 130 2.6 4.3 0.00 0.05 0.00 60 1012.2
20260510091549 74 124 2.6 5.2 0.00 0.05 0.00 60 1012.1
20260510090542 75 74 2.6 3.5 0.00 0.07 0.00 57 1012.1
20260510085533 79 79 2.6 5.2 0.00 0.12 0.00 51 1012.3
20260510084525 80 0 0.9 1.7 0.00 0.18 0.00 51 1012.3
20260510083519 79 270 0.0 1.7 0.00 0.21 0.00 53 1012.2
20260510082610 78 248 0.0 1.7 0.00 0.24 0.00 55 1012.4
20260510081602 77 229 1.7 3.5 0.00 0.31 0.00 54 1012.4
20260510080555 76 270 1.7 2.6 0.00 0.31 0.00 56 1012.4
20260510075546 76 88 0.9 1.7 0.00 0.31 0.00 55 1012.5
20260510074538 77 90 0.9 1.7 0.00 0.31 0.00 57 1012.5
20260510073531 74 80 0.9 2.6 0.00 0.31 0.00 59 1012.7
20260510072543 74 0 0.0 1.7 0.00 0.31 0.00 60 1012.7
20260510071616 72 0 0.0 1.7 0.00 0.31 0.00 66 1012.5
20260510070609 71 0 0.0 1.7 0.00 0.31 0.00 64 1012.5
20260510065559 69 0 0.0 1.7 0.00 0.34 0.00 67 1012.3
20260510064552 69 353 1.7 3.5 0.00 0.38 0.00 68 1012.4
20260510063544 67 315 0.0 1.7 0.00 0.38 0.00 80 1012.1
20260510062536 62 0.0 0.9 0.00 0.38 0.00 84 1012.1
20260510061528 61 315 0.9 1.7 0.00 0.38 0.00 90 1012.1
20260510060520 59 315 0.9 1.7 0.00 0.38 0.00 91 1012.1
20260510055614 58 315 0.9 1.7 0.00 0.39 0.00 91 1011.9
20260510054625 57 315 0.0 1.7 0.00 0.41 0.00 91 1011.9
20260510053557 57 0.0 0.0 0.00 0.41 0.00 91 1011.9
20260510052550 57 0.0 0.0 0.00 0.41 0.00 91 1011.8
20260510051543 57 315 0.0 1.7 0.00 0.41 0.00 90 1011.7
20260510050617 57 0.0 0.0 0.00 0.41 0.00 90 1011.8
20260510045526 56 0.0 0.9 0.00 0.43 0.00 90 1011.8
20260510044518 56 0.0 0.0 0.00 0.43 0.00 90 1011.8
20260510043611 57 315 0.0 1.7 0.00 0.43 0.00 90 1011.8
20260510042603 57 315 0.9 1.7 0.00 0.43 0.00 91 1011.6
20260510041556 57 315 0.9 1.7 0.00 0.43 0.00 90 1011.4
20260510040547 57 315 0.9 1.7 0.00 0.43 0.00 90 1011.5
20260510035540 58 315 0.9 1.7 0.00 0.43 0.00 90 1011.6
20260510034532 57 315 0.9 1.7 0.00 0.43 0.00 90 1011.6
20260510033526 57 315 0.0 1.7 0.00 0.43 0.00 90 1011.6
20260510032518 57 315 0.0 1.7 0.00 0.43 0.00 90 1011.6
20260510031631 57 315 0.0 1.7 0.00 0.43 0.00 89 1011.5
20260510030602 57 0.0 0.0 0.00 0.43 0.00 89 1011.4
20260510025554 58 315 0.0 1.7 0.00 0.43 0.00 89 1011.4
20260510024629 58 315 0.0 1.7 0.00 0.43 0.00 89 1011.4
20260510023539 58 315 0.9 2.6 0.00 0.43 0.00 89 1011.5
20260510022531 58 315 0.9 1.7 0.00 0.43 0.00 89 1011.4
20260510021523 58 315 0.0 1.7 0.00 0.43 0.00 89 1011.3
20260510020515 58 0.0 0.9 0.00 0.43 0.00 89 1011.2
20260510015608 58 315 0.9 1.7 0.00 0.43 0.00 88 1011.3
20260510014602 58 0.0 0.9 0.00 0.43 0.00 88 1011.3
20260510013552 58 315 0.0 1.7 0.00 0.43 0.00 88 1011.2
20260510012545 58 0.0 0.9 0.00 0.43 0.00 89 1011.2
20260510011538 58 0.0 0.9 0.00 0.43 0.00 89 1011.3
20260510010529 58 315 0.0 2.6 0.00 0.43 0.00 90 1011.3
20260510005543 58 315 0.9 1.7 0.00 0.43 0.00 90 1011.4
20260510004635 58 315 0.0 1.7 0.00 0.43 0.00 90 1011.5
20260510003607 58 315 0.0 1.7 0.00 0.43 0.00 90 1011.5
20260510002601 58 315 0.9 1.7 0.00 0.43 0.00 90 1011.5
20260510001552 59 315 0.9 1.7 0.00 0.43 0.00 91 1011.6
20260510000544 59 0.0 0.0 0.00 0.43 0.00 90 1011.7
20260509235536 59 315 0.0 1.7 0.00 0.43 0.00 91 1011.8
20260509234549 59 315 0.0 1.7 0.00 0.43 0.00 90 1011.8
20260509233521 59 315 0.0 1.7 0.00 0.43 0.00 90 1011.8
20260509232614 60 315 0.9 2.6 0.00 0.43 0.00 90 1011.8
20260509231606 60 270 0.0 1.7 0.00 0.43 0.00 90 1011.8
20260509230558 60 270 0.0 1.7 0.00 0.43 0.00 90 1011.8
20260509225551 60 0.0 0.9 0.00 0.43 0.00 89 1011.8
20260509224543 60 0.0 0.0 0.00 0.43 0.00 89 1011.8
20260509223535 61 225 0.0 1.7 0.00 0.43 0.00 89 1012.0
20260509222528 61 225 0.0 1.7 0.00 0.43 0.00 88 1012.0
20260509221520 61 225 0.0 1.7 0.00 0.43 0.00 88 1012.2
20260509220633 61 225 0.9 1.7 0.00 0.43 0.00 88 1012.2
20260509215605 61 225 0.9 1.7 0.00 0.43 0.43 88 1012.2
20260509214558 61 225 0.9 1.7 0.00 0.43 0.43 87 1012.1
20260509213549 61 225 1.7 2.6 0.00 0.43 0.43 85 1012.0
20260509212541 60 0.0 0.9 0.00 0.43 0.43 84 1012.0
20260509211553 61 225 0.9 1.7 0.00 0.43 0.43 84 1012.0